Location: Albany
(35.0170°S, 117.8920°E)
Time: 20:41:55
(UTC+08:00)

A-11 Canister half - Pass Details

Date: 31 January 2021
Orbit: 1525 x 1684 km, 47.3° (Epoch: 03 March)

Event Time Altitude Azimuth Distance (km) Brightness Sun altitude
Rises 07:29:26 0° 236° (SW) 4,894 11.2 23.5°
Reaches altitude 10° 07:32:38 10° 237° (WSW) 3,884 10.7 24.1°
Maximum altitude 07:42:29 74° 319° (NW) 1,651 9.5 26.2°
Drops below altitude 10° 07:51:56 10° 42° (NE) 3,735 11.7 28.1°
Sets 07:54:56 0° 44° (NE) 4,698 12.1 28.7°
